TRA5841 EHRD-LFKB

Flight info

Callsign TRA5841
Flight time 1h 32m
Altitude 37000
Route WOODY N872 NIK M624 REMBA DCT SUTAL DCT GTQ DCT DEVDI DCT ODINA DCT OLETI M858 LIGUR
Aircraft B738/M-SDE2E3FGHIJ1P2RWXY/LB1

Departure

Time 2026-04-20 16:11
Airport Rotterdam The Hague Airport (EHRD)

Arrival

Time 2026-04-20 17:44
Airport Bastia-Poretta International airport (LFKB)
Time Latitude Longitude Altitude Speed Heading
2026-04-20 15:40 51.95039 4.43562 0 ft 0 kts 327°
2026-04-20 16:08 51.95043 4.43558 0 ft 2 kts 326°
2026-04-20 16:08 51.95058 4.43543 0 ft 3 kts 338°
2026-04-20 16:08 51.95092 4.43569 0 ft 7 kts 26°
2026-04-20 16:09 51.95160 4.43521 0 ft 15 kts 326°
2026-04-20 16:09 51.95240 4.43431 0 ft 11 kts 296°
2026-04-20 16:09 51.95210 4.43319 0 ft 13 kts 237°
2026-04-20 16:09 51.95150 4.43162 0 ft 17 kts 242°
2026-04-20 16:10 51.95109 4.42999 0 ft 13 kts 268°
2026-04-20 16:10 51.95166 4.42893 0 ft 13 kts 327°
2026-04-20 16:10 51.95238 4.42893 2 ft 12 kts 62°
2026-04-20 16:10 51.95331 4.43129 1 ft 54 kts 57°
2026-04-20 16:11 51.95667 4.43971 0 ft 122 kts 57°
2026-04-20 16:11 51.96219 4.45356 143 ft 163 kts 55°
2026-04-20 16:11 51.96824 4.46869 1123 ft 152 kts 54°
2026-04-20 16:11 51.97373 4.48263 1858 ft 160 kts 56°
2026-04-20 16:12 51.97967 4.49958 2402 ft 184 kts 60°
2026-04-20 16:12 51.98576 4.51925 2930 ft 201 kts 62°
2026-04-20 16:12 51.99218 4.54050 3284 ft 220 kts 62°
2026-04-20 16:12 51.99652 4.56475 3877 ft 230 kts 84°
2026-04-20 16:13 51.99524 4.59088 4581 ft 237 kts 102°
2026-04-20 16:13 51.98975 4.61678 5276 ft 247 kts 110°
2026-04-20 16:13 51.97864 4.63923 5822 ft 267 kts 145°
2026-04-20 16:13 51.96207 4.65349 6656 ft 273 kts 153°
2026-04-20 16:14 51.94422 4.66450 7464 ft 278 kts 171°
2026-04-20 16:14 51.92493 4.66194 8329 ft 282 kts 199°
2026-04-20 16:14 51.90840 4.64481 9138 ft 288 kts 228°
2026-04-20 16:14 51.89649 4.61918 9992 ft 290 kts 236°
2026-04-20 16:15 51.88494 4.59139 10656 ft 300 kts 237°
2026-04-20 16:15 51.87150 4.56399 10850 ft 326 kts 220°
2026-04-20 16:15 51.85082 4.54705 11174 ft 344 kts 197°
2026-04-20 16:15 51.82709 4.53879 11736 ft 354 kts 184°
2026-04-20 16:16 51.80250 4.54244 12430 ft 358 kts 164°
2026-04-20 16:16 51.77935 4.55762 13197 ft 362 kts 153°
2026-04-20 16:16 51.75701 4.57605 13829 ft 369 kts 152°
2026-04-20 16:16 51.73427 4.59556 14562 ft 371 kts 152°
2026-04-20 16:17 51.71141 4.61527 15227 ft 375 kts 152°
2026-04-20 16:17 51.68824 4.63514 15892 ft 379 kts 152°
2026-04-20 16:17 51.66476 4.65510 16548 ft 383 kts 152°
2026-04-20 16:17 51.64100 4.67512 17198 ft 387 kts 153°
2026-04-20 16:18 51.61700 4.69522 17845 ft 391 kts 153°
2026-04-20 16:18 51.59274 4.71544 18466 ft 395 kts 153°
2026-04-20 16:18 51.56819 4.73585 19029 ft 399 kts 153°
2026-04-20 16:18 51.54349 4.75632 19606 ft 401 kts 153°
2026-04-20 16:19 51.51861 4.77691 20182 ft 404 kts 153°
2026-04-20 16:19 51.49353 4.79763 20728 ft 407 kts 153°
2026-04-20 16:19 51.46824 4.81850 21272 ft 410 kts 153°
2026-04-20 16:19 51.44281 4.83946 21819 ft 413 kts 154°
2026-04-20 16:20 51.41716 4.86056 22354 ft 416 kts 154°
2026-04-20 16:20 51.39131 4.88182 22855 ft 419 kts 154°
2026-04-20 16:20 51.36523 4.90323 23350 ft 423 kts 154°
2026-04-20 16:20 51.33898 4.92476 23822 ft 426 kts 154°
2026-04-20 16:21 51.31253 4.94642 24205 ft 429 kts 154°
2026-04-20 16:21 51.28583 4.96825 24563 ft 433 kts 154°
2026-04-20 16:21 51.25887 4.99027 24909 ft 437 kts 154°
2026-04-20 16:21 51.23171 5.01242 25265 ft 441 kts 155°
2026-04-20 16:22 51.20430 5.03475 25623 ft 444 kts 155°
2026-04-20 16:22 51.17666 5.05723 25962 ft 447 kts 155°
2026-04-20 16:22 51.14887 5.07981 26300 ft 451 kts 155°
2026-04-20 16:22 51.12079 5.10259 26630 ft 454 kts 155°
2026-04-20 16:23 51.09252 5.12549 26943 ft 458 kts 155°
2026-04-20 16:23 51.06403 5.14854 27266 ft 461 kts 156°
2026-04-20 16:23 51.03531 5.17175 27576 ft 464 kts 156°
2026-04-20 16:23 51.00648 5.19501 27883 ft 467 kts 156°
2026-04-20 16:24 50.97738 5.21845 28182 ft 471 kts 156°
2026-04-20 16:24 50.94807 5.24203 28455 ft 474 kts 156°
2026-04-20 16:24 50.91853 5.26577 28733 ft 477 kts 156°
2026-04-20 16:24 50.88887 5.28956 29026 ft 480 kts 157°
2026-04-20 16:25 50.85896 5.31352 29291 ft 483 kts 157°
2026-04-20 16:25 50.82888 5.33758 29550 ft 486 kts 157°
2026-04-20 16:25 50.79902 5.36144 29801 ft 489 kts 157°
2026-04-20 16:25 50.76816 5.38605 30055 ft 492 kts 157°
2026-04-20 16:26 50.73749 5.41048 30284 ft 495 kts 158°
2026-04-20 16:26 50.70712 5.43463 30530 ft 496 kts 158°
2026-04-20 16:26 50.67634 5.45910 30835 ft 496 kts 158°
2026-04-20 16:26 50.64559 5.48350 31176 ft 495 kts 158°
2026-04-20 16:27 50.61478 5.50792 31469 ft 495 kts 158°
2026-04-20 16:27 50.58400 5.53226 31741 ft 495 kts 158°
2026-04-20 16:27 50.55318 5.55659 32021 ft 496 kts 158°
2026-04-20 16:27 50.52237 5.58087 32339 ft 495 kts 158°
2026-04-20 16:28 50.49161 5.60509 32635 ft 495 kts 158°
2026-04-20 16:28 50.46084 5.62927 32918 ft 495 kts 158°
2026-04-20 16:28 50.43003 5.65346 33200 ft 495 kts 158°
2026-04-20 16:28 50.39926 5.67757 33471 ft 495 kts 158°
2026-04-20 16:29 50.36846 5.70167 33774 ft 494 kts 158°
2026-04-20 16:29 50.33778 5.72565 34092 ft 493 kts 158°
2026-04-20 16:29 50.30714 5.74956 34340 ft 492 kts 158°
2026-04-20 16:29 50.27647 5.77346 34555 ft 492 kts 158°
2026-04-20 16:30 50.24582 5.79731 34789 ft 492 kts 158°
2026-04-20 16:30 50.21522 5.82108 35054 ft 490 kts 158°
2026-04-20 16:30 50.18474 5.84473 35294 ft 489 kts 158°
2026-04-20 16:30 50.15425 5.86835 35508 ft 489 kts 158°
2026-04-20 16:31 50.12379 5.89191 35725 ft 489 kts 158°
2026-04-20 16:31 50.09335 5.91542 35964 ft 488 kts 158°
2026-04-20 16:31 50.06302 5.93882 36185 ft 487 kts 158°
2026-04-20 16:31 50.03266 5.96220 36400 ft 486 kts 158°
2026-04-20 16:32 50.00234 5.98552 36577 ft 486 kts 158°
2026-04-20 16:32 49.97202 6.00881 36783 ft 486 kts 158°
2026-04-20 16:32 49.94174 6.03203 36956 ft 485 kts 158°
2026-04-20 16:32 49.91144 6.05525 37137 ft 486 kts 158°
2026-04-20 16:33 49.85100 6.10142 37138 ft 488 kts 158°
2026-04-20 16:33 49.79035 6.14767 37125 ft 484 kts 158°
2026-04-20 16:34 49.73014 6.19344 37121 ft 481 kts 158°
2026-04-20 16:34 49.67022 6.23887 37122 ft 479 kts 158°
2026-04-20 16:35 49.61042 6.28405 37125 ft 478 kts 158°
2026-04-20 16:35 49.55065 6.32911 37133 ft 479 kts 158°
2026-04-20 16:36 49.49070 6.37420 37123 ft 481 kts 158°
2026-04-20 16:36 49.44007 6.41151 37129 ft 482 kts 159°
2026-04-20 16:37 49.37866 6.45298 37115 ft 484 kts 160°
2026-04-20 16:37 49.31676 6.49407 37119 ft 486 kts 160°
2026-04-20 16:38 49.25511 6.53544 37111 ft 488 kts 160°
2026-04-20 16:38 49.19300 6.57731 37119 ft 489 kts 160°
2026-04-20 16:39 49.13071 6.61919 37102 ft 489 kts 160°
2026-04-20 16:39 49.06851 6.66088 37110 ft 488 kts 160°
2026-04-20 16:40 49.00634 6.70243 37111 ft 487 kts 160°
2026-04-20 16:40 48.94448 6.74402 37103 ft 486 kts 159°
2026-04-20 16:41 48.88290 6.78620 37099 ft 485 kts 159°
2026-04-20 16:41 48.82147 6.82824 37116 ft 484 kts 159°
2026-04-20 16:42 48.76007 6.87003 37109 ft 483 kts 159°
2026-04-20 16:42 48.69879 6.91157 37108 ft 483 kts 160°
2026-04-20 16:43 48.63749 6.95300 37101 ft 482 kts 160°
2026-04-20 16:43 48.57620 6.99431 37103 ft 482 kts 160°
2026-04-20 16:44 48.51495 7.03549 37105 ft 482 kts 160°
2026-04-20 16:44 48.45371 7.07656 37098 ft 482 kts 160°
2026-04-20 16:45 48.39237 7.11758 37081 ft 482 kts 160°
2026-04-20 16:45 48.33104 7.15849 37082 ft 482 kts 160°
2026-04-20 16:46 48.26975 7.19927 37072 ft 482 kts 160°
2026-04-20 16:46 48.20849 7.23992 37077 ft 481 kts 160°
2026-04-20 16:47 48.14730 7.28042 37076 ft 481 kts 160°
2026-04-20 16:47 48.08595 7.32091 37072 ft 481 kts 160°
2026-04-20 16:48 48.02473 7.36122 37076 ft 481 kts 160°
2026-04-20 16:48 47.96353 7.40140 37073 ft 480 kts 160°
2026-04-20 16:49 47.90237 7.44147 37068 ft 480 kts 160°
2026-04-20 16:49 47.84158 7.48118 37053 ft 480 kts 160°
2026-04-20 16:50 47.78047 7.52102 37051 ft 480 kts 160°
2026-04-20 16:50 47.71941 7.56103 37052 ft 480 kts 159°
2026-04-20 16:51 47.65898 7.60339 37039 ft 481 kts 158°
2026-04-20 16:51 47.59877 7.64637 37043 ft 480 kts 158°
2026-04-20 16:52 47.53855 7.68897 37038 ft 480 kts 158°
2026-04-20 16:52 47.47834 7.73119 37041 ft 479 kts 158°
2026-04-20 16:53 47.41817 7.77317 37038 ft 478 kts 159°
2026-04-20 16:53 47.35803 7.81503 37031 ft 477 kts 159°
2026-04-20 16:54 47.29808 7.85668 37029 ft 476 kts 159°
2026-04-20 16:54 47.23812 7.89821 37029 ft 476 kts 159°
2026-04-20 16:55 47.17828 7.93957 37029 ft 475 kts 159°
2026-04-20 16:55 47.11845 7.98082 37039 ft 474 kts 159°
2026-04-20 16:56 47.05868 8.02192 37034 ft 475 kts 159°
2026-04-20 16:56 46.99886 8.06296 37039 ft 474 kts 159°
2026-04-20 16:57 46.93906 8.10388 37046 ft 475 kts 159°
2026-04-20 16:57 46.87915 8.14477 37059 ft 475 kts 159°
2026-04-20 16:58 46.81966 8.18528 37034 ft 475 kts 159°
2026-04-20 16:58 46.75938 8.22621 37023 ft 474 kts 159°
2026-04-20 16:59 46.69953 8.26677 37020 ft 474 kts 159°
2026-04-20 16:59 46.63974 8.30719 37017 ft 474 kts 159°
2026-04-20 17:00 46.54991 8.36771 36984 ft 472 kts 159°
2026-04-20 17:01 46.49052 8.40762 36971 ft 469 kts 159°
2026-04-20 17:01 46.43186 8.44693 36950 ft 466 kts 159°
2026-04-20 17:02 46.37299 8.48630 36928 ft 465 kts 159°
2026-04-20 17:02 46.31411 8.52556 36925 ft 469 kts 159°
2026-04-20 17:03 46.25431 8.56533 36908 ft 476 kts 159°
2026-04-20 17:03 46.19399 8.60540 36896 ft 478 kts 159°
2026-04-20 17:04 46.13334 8.64557 36886 ft 480 kts 160°
2026-04-20 17:04 46.07013 8.67223 36867 ft 470 kts 178°
2026-04-20 17:05 46.00521 8.68182 36880 ft 468 kts 179°
2026-04-20 17:05 45.94047 8.69086 36886 ft 467 kts 179°
2026-04-20 17:06 45.87600 8.70042 36884 ft 465 kts 179°
2026-04-20 17:06 45.81157 8.71032 36873 ft 465 kts 178°
2026-04-20 17:07 45.74735 8.72026 36876 ft 463 kts 178°
2026-04-20 17:07 45.68328 8.73016 36882 ft 463 kts 178°
2026-04-20 17:08 45.61934 8.73999 36883 ft 462 kts 178°
2026-04-20 17:08 45.55540 8.74978 36882 ft 462 kts 178°
2026-04-20 17:09 45.49150 8.75955 36885 ft 462 kts 178°
2026-04-20 17:09 45.42765 8.76929 36880 ft 462 kts 178°
2026-04-20 17:10 45.36368 8.77903 36878 ft 462 kts 178°
2026-04-20 17:10 45.30004 8.78869 36876 ft 463 kts 179°
2026-04-20 17:11 45.23595 8.79840 36870 ft 464 kts 179°
2026-04-20 17:11 45.17174 8.80811 36883 ft 464 kts 179°
2026-04-20 17:12 45.10744 8.81781 36884 ft 465 kts 179°
2026-04-20 17:12 45.04305 8.82750 36885 ft 466 kts 179°
2026-04-20 17:13 44.97858 8.83718 36882 ft 466 kts 179°
2026-04-20 17:13 44.91400 8.84686 36881 ft 467 kts 179°
2026-04-20 17:14 44.84933 8.85653 36885 ft 467 kts 179°
2026-04-20 17:14 44.78458 8.86619 36889 ft 468 kts 179°
2026-04-20 17:15 44.71975 8.87584 36901 ft 469 kts 179°
2026-04-20 17:15 44.65490 8.88547 36910 ft 468 kts 179°
2026-04-20 17:16 44.59005 8.89508 36932 ft 469 kts 180°
2026-04-20 17:16 44.52525 8.90466 36921 ft 467 kts 180°
2026-04-20 17:17 44.46067 8.91419 36933 ft 467 kts 180°
2026-04-20 17:17 44.39607 8.92370 36940 ft 466 kts 180°
2026-04-20 17:18 44.33145 8.93317 36673 ft 471 kts 180°
2026-04-20 17:18 44.29881 8.93793 36154 ft 471 kts 180°
2026-04-20 17:18 44.26626 8.94271 35550 ft 470 kts 180°
2026-04-20 17:18 44.23375 8.94747 34908 ft 470 kts 180°
2026-04-20 17:19 44.20166 8.95217 34278 ft 470 kts 180°
2026-04-20 17:19 44.16912 8.95692 33576 ft 471 kts 180°
2026-04-20 17:19 44.13649 8.96167 32829 ft 471 kts 180°
2026-04-20 17:19 44.10406 8.96642 32354 ft 466 kts 180°
2026-04-20 17:20 44.07199 8.97112 31841 ft 462 kts 180°
2026-04-20 17:20 44.04021 8.97576 31359 ft 457 kts 180°
2026-04-20 17:20 44.00870 8.98034 30886 ft 453 kts 180°
2026-04-20 17:20 43.97752 8.98486 30424 ft 449 kts 181°
2026-04-20 17:21 43.94657 8.98933 29959 ft 445 kts 181°
2026-04-20 17:21 43.91587 8.99376 29427 ft 442 kts 181°
2026-04-20 17:21 43.88548 8.99814 28935 ft 437 kts 180°
2026-04-20 17:21 43.85533 9.00249 28477 ft 433 kts 180°
2026-04-20 17:22 43.82547 9.00679 27999 ft 430 kts 181°
2026-04-20 17:22 43.79595 9.00842 27533 ft 419 kts 189°
2026-04-20 17:22 43.76706 9.00539 27071 ft 414 kts 192°
2026-04-20 17:22 43.73852 9.00164 26608 ft 411 kts 192°
2026-04-20 17:23 43.71010 8.99785 26150 ft 409 kts 192°
2026-04-20 17:23 43.69139 8.99544 25860 ft 407 kts 191°
2026-04-20 17:23 43.66322 8.99195 25404 ft 405 kts 191°
2026-04-20 17:23 43.63517 8.98860 24956 ft 404 kts 191°
2026-04-20 17:24 43.60726 8.98534 24509 ft 402 kts 191°
2026-04-20 17:24 43.57946 8.98212 24067 ft 400 kts 190°
2026-04-20 17:24 43.55171 8.97891 23612 ft 399 kts 190°
2026-04-20 17:24 43.52408 8.97560 23099 ft 398 kts 191°
2026-04-20 17:25 43.49657 8.97213 22605 ft 396 kts 191°
2026-04-20 17:25 43.46925 8.96862 22143 ft 393 kts 191°
2026-04-20 17:25 43.44213 8.96515 21699 ft 390 kts 191°
2026-04-20 17:25 43.41517 8.96173 21247 ft 388 kts 191°
2026-04-20 17:26 43.38839 8.95836 20804 ft 386 kts 190°
2026-04-20 17:26 43.36171 8.95521 20366 ft 384 kts 190°
2026-04-20 17:26 43.33518 8.95228 19938 ft 382 kts 189°
2026-04-20 17:26 43.30874 8.94938 19501 ft 380 kts 189°
2026-04-20 17:27 43.28243 8.94647 19060 ft 379 kts 189°
2026-04-20 17:27 43.25623 8.94354 18636 ft 377 kts 189°
2026-04-20 17:27 43.22984 8.94439 18176 ft 385 kts 173°
2026-04-20 17:27 43.20461 8.95734 17707 ft 392 kts 154°
2026-04-20 17:28 43.18128 8.97644 17267 ft 390 kts 151°
2026-04-20 17:28 43.15832 8.99611 16812 ft 389 kts 151°
2026-04-20 17:28 43.13547 9.01565 16392 ft 386 kts 151°
2026-04-20 17:28 43.11301 9.03456 15997 ft 383 kts 152°
2026-04-20 17:29 43.09029 9.05341 15577 ft 381 kts 152°
2026-04-20 17:29 43.06734 9.07229 15165 ft 379 kts 152°
2026-04-20 17:29 43.04511 9.09056 14738 ft 377 kts 152°
2026-04-20 17:29 43.02265 9.10898 14318 ft 376 kts 152°
2026-04-20 17:30 43.00031 9.12730 13901 ft 374 kts 152°
2026-04-20 17:30 42.97770 9.14582 13429 ft 373 kts 152°
2026-04-20 17:30 42.95581 9.16377 12977 ft 371 kts 152°
2026-04-20 17:30 42.93514 9.18069 12567 ft 369 kts 152°
2026-04-20 17:31 42.91279 9.19898 12129 ft 367 kts 152°
2026-04-20 17:31 42.89098 9.21680 11690 ft 365 kts 152°
2026-04-20 17:31 42.86918 9.23461 11219 ft 365 kts 152°
2026-04-20 17:31 42.84745 9.25235 10795 ft 363 kts 152°
2026-04-20 17:32 42.82594 9.26991 10555 ft 356 kts 152°
2026-04-20 17:32 42.80499 9.28701 10385 ft 347 kts 152°
2026-04-20 17:32 42.78455 9.30368 10233 ft 338 kts 152°
2026-04-20 17:32 42.76462 9.31992 10092 ft 330 kts 152°
2026-04-20 17:33 42.74513 9.33578 9954 ft 322 kts 152°
2026-04-20 17:33 42.72628 9.35112 9960 ft 310 kts 152°
2026-04-20 17:33 42.70805 9.36593 9932 ft 300 kts 153°
2026-04-20 17:33 42.69039 9.38027 9829 ft 292 kts 153°
2026-04-20 17:34 42.67303 9.39435 9578 ft 289 kts 153°
2026-04-20 17:34 42.65574 9.40834 9264 ft 288 kts 153°
2026-04-20 17:34 42.63858 9.42223 8952 ft 287 kts 153°
2026-04-20 17:34 42.62151 9.43606 8657 ft 285 kts 153°
2026-04-20 17:35 42.60448 9.44984 8373 ft 283 kts 153°
2026-04-20 17:35 42.58764 9.46345 8084 ft 282 kts 153°
2026-04-20 17:35 42.57075 9.47707 7802 ft 280 kts 153°
2026-04-20 17:35 42.55392 9.49031 7521 ft 279 kts 154°
2026-04-20 17:36 42.53717 9.50333 7248 ft 277 kts 154°
2026-04-20 17:36 42.52047 9.51630 6970 ft 276 kts 154°
2026-04-20 17:36 42.50391 9.52918 6703 ft 274 kts 153°
2026-04-20 17:36 42.48759 9.54189 6437 ft 273 kts 153°
2026-04-20 17:37 42.47118 9.55465 6190 ft 271 kts 153°
2026-04-20 17:37 42.45508 9.56718 6055 ft 263 kts 153°
2026-04-20 17:37 42.43938 9.57940 5904 ft 257 kts 153°
2026-04-20 17:37 42.42407 9.59131 5782 ft 249 kts 153°
2026-04-20 17:38 42.40936 9.60276 5569 ft 240 kts 153°
2026-04-20 17:38 42.39508 9.61385 5332 ft 233 kts 153°
2026-04-20 17:38 42.38093 9.62414 5006 ft 228 kts 164°
2026-04-20 17:38 42.36565 9.62403 4594 ft 221 kts 205°
2026-04-20 17:39 42.35405 9.61113 4205 ft 220 kts 242°
2026-04-20 17:39 42.35141 9.59131 3894 ft 219 kts 283°
2026-04-20 17:39 42.35924 9.57463 3749 ft 211 kts 323°
2026-04-20 17:39 42.37172 9.56470 3501 ft 207 kts 332°
2026-04-20 17:40 42.38459 9.55655 3245 ft 202 kts 335°
2026-04-20 17:40 42.39746 9.54947 2981 ft 197 kts 340°
2026-04-20 17:40 42.41025 9.54370 2719 ft 192 kts 342°
2026-04-20 17:40 42.42280 9.53839 2469 ft 186 kts 342°
2026-04-20 17:41 42.43502 9.53325 2216 ft 181 kts 343°
2026-04-20 17:41 42.44690 9.52826 1981 ft 176 kts 343°
2026-04-20 17:41 42.45854 9.52336 1747 ft 174 kts 343°
2026-04-20 17:41 42.47009 9.51849 1518 ft 174 kts 343°
2026-04-20 17:42 42.48138 9.51373 1317 ft 162 kts 343°
2026-04-20 17:42 42.49175 9.50936 1077 ft 152 kts 343°
2026-04-20 17:42 42.50178 9.50514 882 ft 150 kts 343°
2026-04-20 17:42 42.51168 9.50095 683 ft 149 kts 343°
2026-04-20 17:43 42.52154 9.49653 505 ft 149 kts 344°
2026-04-20 17:43 42.53149 9.49247 292 ft 150 kts 346°
2026-04-20 17:43 42.54154 9.48833 82 ft 152 kts 345°
2026-04-20 17:43 42.55104 9.48442 34 ft 126 kts 342°
2026-04-20 17:44 42.55734 9.48178 26 ft 64 kts 342°
2026-04-20 17:44 42.55961 9.48076 27 ft 13 kts 319°
2026-04-20 17:44 42.55952 9.47959 25 ft 13 kts 253°
2026-04-20 17:44 42.55904 9.47869 25 ft 12 kts 210°
2026-04-20 17:45 42.55821 9.47885 27 ft 12 kts 163°
2026-04-20 17:45 42.55742 9.47918 28 ft 12 kts 162°
2026-04-20 17:45 42.55664 9.47950 30 ft 11 kts 162°
2026-04-20 17:45 42.55590 9.47982 32 ft 11 kts 162°
2026-04-20 17:46 42.55512 9.48015 34 ft 13 kts 162°
2026-04-20 17:46 42.55420 9.48054 33 ft 15 kts 163°
2026-04-20 17:46 42.55315 9.48097 34 ft 16 kts 162°
2026-04-20 17:46 42.55213 9.48140 34 ft 15 kts 162°
2026-04-20 17:47 42.55115 9.48182 34 ft 14 kts 162°
2026-04-20 17:47 42.55031 9.48216 34 ft 10 kts 162°
2026-04-20 17:47 42.54993 9.48233 32 ft 5 kts 162°
2026-04-20 17:47 42.54960 9.48235 34 ft 4 kts 185°
2026-04-20 17:48 42.54930 9.48238 34 ft 5 kts 166°
2026-04-20 17:48 42.54898 9.48236 34 ft 5 kts 229°
2026-04-20 17:48 42.54891 9.48188 34 ft 5 kts 253°
2026-04-20 17:48 42.54883 9.48150 34 ft 0 kts 253°